sat.trackr.live / text

‹ back to catalog

IRIDIUM 149

NORAD 43250 · 2018-030B

PAYLOAD ACTIVE UNKNOWN

§ Identity

Operator
Country
US
Launch date
2018-03-30
Launch site
AFWTR
Launch vehicle
Mass (kg)
RCS (m²)

Purposes: comms

External: N2YO · Heavens-Above · Gunter

§ Orbital elements

Epoch: 2026-09-19T11:51:39.369024Z

Period
100.40 min
Inclination
86.3913°
Eccentricity
0.0002339
Mean motion
14.34217793 rev/d
Perigee alt
776.0 km
Apogee alt
779.3 km
Semi-major
7,155.8 km
B*
1.2864e-5
RAAN
250.9150°
Arg perigee
88.4051°
Mean anomaly
271.7413°
Rev number
44,367

§ Raw data

IRIDIUM 1491 43250U 18030B   26262.49420566  .00000056  00000+0  12864-4 0  99952 43250  86.3913 250.9150 0002339  88.4051 271.7413 14.34217793443671

JSON: /api/v1/satellites/43250 · /tle

For live sub-satellite position, see the globe view (requires WebGL).

§ Visibility from observer

Set your observer location to see the next 7 days of passes ≥ 10°. The values pass through the URL so the page stays shareable.

No JS? Fill the form by hand. The geolocation button needs JavaScript.